Погода в Кировском

Россия / Белгородская область     51°01′12″N   36°07′21″E
темп.,
°C
ветер,
м/с
пор.,
м/с
влажн.,
%
обл.,
%
осадки,
мм/ч
давл.,
гПа
погр.,
м
12 мая, ср
ср1200:00+8всв61478100 0.0 10211327
03:00+8в81477100 0.1 10201294
06:00+6всв5128811 0.0 1021530
09:00+11в81273100 0.0 10211195
12:00+10в71078100 1.1 10191289
15:00+10всв3781100 1.5 1017520
18:00+9в3993100 6.3 1016451
21:00+7в3694100 10.0 1015103
13 мая, чт
чт1300:00+8вюв6119247 0.8 1014474
03:00+6юв5129741 0.9 1014315
06:00+7юв5995100 0.0 1015367
09:00+11ююв5782100 0.0 1015738
12:00+15ю586054 0.1 10141615
15:00+17ю565377 0.1 10141755
18:00+16ю3564100 0.0 1014644
21:00+11юв338593 0.0 101538
14 мая, пт
пт1400:00+10вюв3592100 0.0 101569
03:00+11в389199 0.0 1014145
06:00+12вюв5119282 0.1 1013227
09:00+18юв61178100 0.1 1012530
12:00+22юв796610 0.0 10111227
15:00+24ююв796384 0.0 10101646
18:00+21ююв61076100 0.9 1010491
21:00+17ююв4108899 4.4 1010186
15 мая, сб
сб1500:00+15ю3396100 4.9 100952
03:00+14ююз22870 5.8 100914
06:00+14ююз358996 0.0 101089
09:00+18юз577857 0.0 1010523
12:00+21юз5663100 0.0 10111404
15:00+21юз585677 0.0 10112206
18:00+18юз3777100 0.6 1012433
21:00+14зюз22875 0.7 101213
16 мая, вс
вс1600:00+12з11907 0.0 101310
03:00+12сз11910 0.0 101410
06:00+12с22915 0.0 101428
09:00+18св2377100 0.0 1014434
12:00+21всв346397 0.0 1013996
15:00+23всв4557100 0.0 10121480
18:00+22всв4870100 0.0 1011418
21:00+18всв51485100 0.1 1010310